Location: Gouy
(50.0008°N, 3.2556°E)
Time: 14:56:39
(UTC+00:00)

Cosmos 2219 Rocket - Pass Details

Date: 23 May 2024
Orbit: 826 x 847 km, 71.0° (Epoch: 18 June)

Event Time Altitude Azimuth Distance (km) Brightness Sun altitude
Rises 01:47:54 0° 332° (NNW) 3,398 5.8 -14.2°
Reaches altitude 10° 01:50:28 10° 339° (NNW) 2,463 5.2 -14.0°
Maximum altitude 01:55:54 46° 53° (NE) 1,121 3.3 -13.5°
Drops below altitude 10° 02:01:19 10° 126° (SE) 2,462 4.6 -13.1°
Sets 02:03:52 0° 132° (SE) 3,395 5.3 -12.8°
